Location: Chalonge
(47.9838°N, 1.1508°W)
Time: 13:11:25
(UTC+00:00)

Daily predictions for brighter satellites

Satellite Brightness Start Highest point End
(mag) Time Altitude Azimuth Time Altitude Azimuth Time Altitude Azimuth
Ariane Rocket 3.1 20:13:56 10° SSE 20:19:00 90° ENE 20:24:06 10° NNW
GEOS 3 Rocket 4.3 20:16:12 10° NE 20:21:21 61° NW 20:26:24 10° WSW
Cosmos 1437 4.3 20:18:59 10° NNW 20:21:28 29° W 20:23:56 10° SSW
SL-16 R/B 3.2 20:17:12 10° NNW 20:22:24 35° NE 20:27:33 10° ESE
Cosmos 1782 4.4 20:23:44 10° NNE 20:26:47 20° ENE 20:29:48 10° ESE
Cosmos 371 Rocket 3.3 20:22:37 10° NNW 20:27:26 73° ENE 20:32:15 10° SSE
ARIANE 5 R/B 4.0 20:27:15 10° ESE 20:30:56 26° ENE 20:34:36 10° N
Cosmos 1271 Rocket 3.8 20:29:52 10° N 20:33:27 31° ENE 20:36:55 11° SE
USA 276 2.2 20:32:06 10° WNW 20:35:16 79° NNE 20:38:26 10° ESE
BREEZE-M DEB (TANK) 2.2 20:33:47 10° WNW 20:36:29 72° SSW 20:42:53 10° ESE
SPOT 1/Viking Rocket 3.8 20:31:54 10° SSE 20:36:58 56° ENE 20:42:05 10° N
Cosmos 1076 Rocket 3.5 20:34:07 10° S 20:38:26 77° E 20:42:49 10° NNE
Cosmos 1697 Rocket 4.1 20:33:35 10° NW 20:38:41 35° WSW 20:43:45 10° S
ATLAS 5 CENTAUR R/B 4.3 20:37:09 10° NNW 20:40:22 17° NNE 20:43:54 10° NE
Cosmos 1151 Rocket 4.4 20:36:50 10° NNE 20:40:25 24° ENE 20:43:40 11° ESE
OBJECT-B 3.6 20:39:20 10° SW 20:41:28 16° W 20:43:35 10° NW
ATLAS 2AS CENTAUR R/B 3.4 20:36:16 10° SW 20:44:11 71° NW 20:51:53 10° NE
Cosmos 1833 Rocket 4.2 20:43:58 10° WSW 20:49:16 41° NW 20:54:36 10° NNE
ATLAS 3B R/B 3.0 20:42:29 10° NW 20:49:33 72° SW 20:56:42 11° SSE
Terra 3.2 20:47:56 11° ESE 20:51:33 26° ENE 20:55:27 10° N
SPOT 5 3.6 20:50:48 13° SE 20:54:06 33° ENE 20:58:02 10° N
Cosmos 2082 Rocket 2.7 20:50:12 10° SW 20:55:47 66° WNW 21:01:28 10° NNE
Cosmos 1092 Rocket 4.1 20:50:19 10° S 20:56:25 60° E 21:02:39 10° NNE
Meteor 2-19 Rocket 4.4 20:50:33 10° S 20:56:32 68° E 21:02:33 10° NNE
Cosmos 1633 3.3 20:54:16 10° SSW 20:57:48 54° WNW 21:01:23 10° N
Cosmos 2278 4.3 20:53:13 10° NW 20:58:44 56° WSW 21:04:14 10° S
BREEZE-M DEB (TANK) 1.6 20:58:35 10° WSW 21:01:27 89° ENE 21:03:13 11° ENE
ERS-1 Rocket 3.5 21:00:35 15° SE 21:04:29 46° ENE 21:09:17 10° N
Cosmos 332 Rocket 3.8 20:59:52 10° NNW 21:04:47 86° WSW 21:08:58 14° SSE
Cosmos 1606 4.4 21:02:17 10° NNW 21:05:40 31° W 21:09:02 10° SSW
Cosmos 2360 Rocket 3.2 21:00:38 10° NNW 21:05:46 35° NE 21:10:08 14° ESE
Cosmos 158 Rocket 3.9 21:02:17 10° SSW 21:07:26 78° ESE 21:12:44 10° NNE
Cosmos 2026 Rocket 4.1 21:03:11 10° S 21:09:25 61° E 21:15:35 10° NNE
GP-B 3.2 21:08:16 10° N 21:12:41 61° E 21:16:13 15° SSE
ISS -2.9 21:11:04 10° WNW 21:14:14 37° SW 21:15:56 22° SSE
Cosmos 2333 Rocket 3.8 21:11:31 10° N 21:16:06 24° NE 21:20:38 10° E
Nadezhda 4 Rocket 4.5 21:10:55 10° SSW 21:17:01 63° WNW 21:23:14 10° N
Meteor 1-26 Rocket 4.3 21:12:56 10° N 21:18:57 88° ENE 21:23:55 15° S
Spot 2 Rocket 3.5 21:14:48 15° SSE 21:19:02 84° ENE 21:24:11 10° NNW
SPOT 3 Rocket 4.3 21:14:49 10° S 21:19:54 50° W 21:25:00 10° NNW
Cosmos 1812 3.5 21:17:38 10° N 21:21:14 36° ENE 21:23:04 23° SE
Cosmos 2112 Rocket 4.4 21:17:49 13° S 21:22:13 43° ESE 21:27:11 10° NE
Cosmos 1680 Rocket 3.7 21:17:36 10° S 21:22:41 50° ESE 21:27:45 10° NNE
Cosmos 220 Rocket 4.4 21:19:03 10° NNW 21:23:18 52° ENE 21:25:50 23° SE
CZ-2C R/B 3.7 21:20:11 10° NNE 21:24:45 83° WNW 21:29:13 10° SSW
Cosmos 1627 Rocket 4.5 21:18:43 10° S 21:25:03 81° E 21:31:22 10° N
Cosmos 1980 Rocket 3.8 21:22:13 10° NW 21:26:55 28° WSW 21:31:37 10° SSW
Okean 3 Rocket 3.8 21:24:58 19° SSE 21:27:56 52° E 21:32:20 10° NNE
USA 245 4.1 21:25:06 13° S 21:29:42 61° WSW 21:33:52 10° NNW
USA 234 4.2 21:24:55 10° E 21:31:06 47° NNE 21:37:18 10° NW
Cosmos 1933 4.3 21:33:10 10° NNW 21:37:02 43° W 21:40:22 13° SSW
Cosmos 2322 Rocket 2.2 21:32:34 10° NNW 21:38:15 87° ENE 21:41:46 24° SSE
Cosmos 1428 Rocket 4.5 21:32:39 10° S 21:38:48 84° W 21:44:58 10° N
Resurs 01 Rocket 3.8 21:37:50 10° SW 21:41:19 22° W 21:44:49 10° NW
Cosmos 1408 Rocket 4.2 21:40:12 27° SE 21:41:50 38° E 21:45:52 10° NNE
Cosmos 2151 4.4 21:39:16 10° SW 21:43:13 38° WNW 21:47:15 10° N
Meteor 2-14 Rocket 4.5 21:43:59 19° S 21:48:27 66° E 21:54:33 10° NNE
CARTOSAT-1 4.3 21:46:36 18° SSW 21:49:38 48° W 21:53:50 10° NNW
Cosmos 2084 3.5 21:48:52 23° S 21:51:06 48° SE 21:55:07 10° NE
Cosmos 1553 Rocket 3.9 21:45:35 10° N 21:51:41 84° E 21:55:36 24° S
CZ-4B DEB 4.3 21:53:29 47° SE 21:54:08 61° ENE 21:57:16 10° N
Meteor 2-3 Rocket 4.5 21:48:41 10° SSW 21:54:13 53° WNW 21:59:51 10° N
Gbstr 26 Del rocket 3.2 21:50:43 10° WNW 21:54:19 44° SSW 21:55:26 34° S
Cosmos 2266 Rocket 4.4 21:53:29 26° SE 21:56:29 44° E 22:02:21 10° NNE
Cosmos 1862 3.2 21:57:03 35° SSE 21:58:34 67° E 22:02:32 10° NNE
Cosmos 2219 Rocket 3.2 21:54:33 10° NNW 21:59:44 36° NE 22:02:58 20° ESE
Cosmos 1624 Rocket 3.9 21:55:08 10° NNW 22:00:23 90° E 22:02:57 31° SSE
Cosmos 1782 4.0 21:59:29 10° NNW 22:03:13 37° W 22:05:38 19° SSW
Cosmos 2228 Rocket 4.2 22:00:51 10° N 22:04:48 31° ENE 22:06:05 26° ESE
Cosmos 1515 Rocket 3.5 22:00:38 10° N 22:05:06 72° E 22:06:43 38° SSE
NOSS 2-1 (E) 2.9 22:05:22 51° ESE 22:05:22 51° ESE 22:08:35 10° NE
H-2A R/B 3.6 22:01:55 10° NNE 22:06:03 54° E 22:07:15 39° SSE
SL-16 R/B 2.9 22:01:15 10° NW 22:06:39 46° WSW 22:09:55 22° S
ARIANE 5 R/B 3.7 22:04:24 19° SSW 22:07:12 40° W 22:11:25 10° NNW
NOSS 3-1 (C) 4.2 22:01:25 10° NW 22:08:41 68° NE 22:14:30 22° SE
COSMOS 2455 3.6 22:09:10 29° SE 22:10:29 32° ESE 22:15:44 10° NE
Cosmos 2237 4.3 22:05:15 10° NNW 22:10:56 71° WSW 22:13:45 31° S
USA 276 3.5 22:08:30 10° W 22:10:46 26° SW 22:10:46 26° SW
Cosmos 1420 Rocket 4.0 22:06:02 10° NNW 22:11:23 77° ENE 22:13:43 35° SSE
COSMOS 2428 3.6 22:09:09 10° NNW 22:14:30 39° NE 22:17:35 22° ESE
Meteor 2-6 Rocket 4.3 22:10:41 10° NNW 22:16:05 70° W 22:18:52 29° S
Cosmos 1655 Rocket 4.0 22:12:44 28° S 22:16:16 69° E 22:22:38 10° NNE
Cosmos 1151 Rocket 4.2 22:14:04 10° NNW 22:18:04 36° W 22:20:30 20° SW
Cosmos 1766 Rocket 4.4 22:14:49 15° SW 22:18:10 46° WNW 22:22:25 10° N
S3M 4.0 22:15:35 10° N 22:22:00 86° W 22:25:25 30° S
Cosmos 1328 Rocket 4.5 22:18:21 10° NNW 22:22:34 43° W 22:24:43 25° SSW
USA 229 DEB 4.3 22:15:44 10° NW 22:22:51 56° NE 22:28:16 20° ESE
USA 229 4.4 22:15:50 10° NW 22:22:56 56° NE 22:28:23 20° ESE
ATLAS 5 CENTAUR R/B 3.2 22:21:17 10° NNW 22:26:19 40° NE 22:30:39 17° ESE
Cosmos 1174 3.1 22:23:36 10° NW 22:26:29 77° N 22:26:29 77° N
Terra 2.6 22:26:49 26° SSW 22:29:04 44° W 22:33:39 10° NNW
COSMOS 2487 3.9 22:31:49 25° ENE 22:31:49 25° ENE 22:33:50 10° NE
Cosmos 1452 Rocket 3.8 22:25:41 10° NNW 22:30:54 59° ENE 22:32:49 37° SE
SPOT 5 4.2 22:30:02 18° SW 22:32:14 27° W 22:36:00 10° NW
ALOS 2 3.9 22:33:57 24° E 22:35:08 28° ENE 22:38:54 10° N
USA 267 3.2 22:32:39 10° ENE 22:39:07 59° SE 22:45:33 10° SW
Cosmos 2056 Rocket 4.3 22:35:20 10° NW 22:40:24 44° WSW 22:42:28 30° SSW
SL-27 R/B 3.1 22:39:50 36° WSW 22:40:58 53° WNW 22:44:31 10° NNE
Meteor 1-27 Rocket 3.7 22:36:23 10° NNW 22:42:03 89° W 22:44:14 40° S
NOSS 3-1 (A) 4.2 22:36:05 10° NW 22:43:24 69° NE 22:48:48 25° ESE
NOSS 2-1 (C) 3.8 22:48:04 24° WSW 22:49:40 46° NW 22:53:01 10° NNE
Cosmos 1805 Rocket 3.6 22:49:13 55° SE 22:49:48 61° E 22:54:11 10° NNE
Cosmos 2360 Rocket 2.8 22:44:34 10° NW 22:49:56 46° WSW 22:51:53 33° SSW
IRIDIUM 104 4.2 22:45:26 10° N 22:50:42 88° E 22:52:18 46° S
Meteor 1-20 Rocket 4.4 22:54:51 43° SE 22:56:18 56° E 23:01:52 10° NNE
Cosmos 1110 Rocket 4.5 22:51:41 10° NNW 22:56:56 53° ENE 22:58:40 37° ESE
NOSS 2-1 (D) 4.2 22:55:30 20° WSW 22:57:24 39° NW 23:00:42 10° NNE
IRIDIUM 114 4.3 22:54:35 10° N 22:59:50 78° W 23:01:25 46° SSW
Cosmos 1833 4.5 22:56:03 20° SW 23:00:07 69° WNW 23:05:55 10° NNE
Cosmos 1500 Rocket 3.9 22:59:40 41° SW 23:00:56 59° WNW 23:05:21 10° N
Cosmos 2333 Rocket 2.2 22:55:18 10° NNW 23:00:58 74° WSW 23:02:38 46° S
Cosmos 1331 Rocket 4.4 22:57:13 10° NNW 23:02:22 53° ENE 23:03:58 38° ESE
Cosmos 972 Rocket 3.9 23:07:27 43° SSW 23:09:14 86° WNW 23:14:18 10° NNE
COBE Rocket 3.8 23:09:07 54° SSW 23:10:00 68° W 23:14:42 10° NNW
Cosmos 2322 3.8 23:05:30 10° NNW 23:11:11 66° WSW 23:12:44 47° S
NOSS 0 Rocket 4.2 23:07:12 10° NNW 23:13:25 63° ENE 23:16:01 35° ESE
USA 234 3.2 23:10:02 28° ESE 23:13:47 87° NNE 23:20:23 10° NW
Cosmos 468 4.4 23:16:09 55° S 23:17:17 78° ESE 23:22:32 10° NNE
Cosmos 2297 Rocket 3.5 23:17:11 24° ESE 23:17:19 24° ESE 23:21:44 10° NE
Lacrosse 5 3.7 23:21:59 18° E 23:21:59 18° E 23:23:55 10° ENE
Cosmos 2322 Rocket 4.2 23:18:15 10° WNW 23:21:29 16° W 23:23:35 13° WSW
Cosmos 2237 Rocket 2.9 23:16:06 10° NNW 23:21:35 47° NE 23:24:02 29° ESE
Cosmos 2084 Rocket 4.4 23:18:50 10° NNW 23:22:50 43° NE 23:24:07 33° E
Meteor 1-18 Rocket 4.4 23:19:26 10° N 23:25:19 69° ENE 23:26:57 47° SE
Cosmos 1500 3.8 23:26:57 47° ENE 23:26:57 47° ENE 23:30:14 10° NNE
Cosmos 2227 Rocket 3.6 23:28:53 22° ESE 23:29:04 22° E 23:33:18 10° NE
Sich 1 3.1 23:28:46 61° WSW 23:29:18 68° W 23:33:39 10° N
Cosmos 2285 Rocket 4.2 23:24:32 10° NNW 23:30:42 59° WSW 23:32:33 43° SSW
Okean 1 3.2 23:27:48 10° N 23:31:46 86° N 23:31:46 86° N
Meteor 1-25 Rocket 4.1 23:30:17 49° SSW 23:31:53 82° WNW 23:37:29 10° N
Cosmos 1633 Rocket 3.0 23:33:06 64° ESE 23:33:11 64° E 23:37:31 10° NNE
Cosmos 494 Rocket 3.8 23:33:17 59° SSW 23:34:15 86° ESE 23:39:25 10° NNE
Cosmos 1666 Rocket 3.4 23:37:07 79° SSE 23:37:22 86° ESE 23:41:51 10° N
Cosmos 1048 Rocket 4.1 23:39:38 43° SW 23:41:11 67° WNW 23:46:18 10° NNE
Cosmos 2228 Rocket 4.4 23:39:09 10° NNW 23:42:56 28° W 23:43:34 27° WSW
Cosmos 2219 Rocket 2.7 23:38:31 10° NW 23:43:45 42° WSW 23:44:40 39° SW
SL-08 R/B 4.4 23:45:17 49° S 23:47:05 82° E 23:53:16 10° N
Meteor 1-19 Rocket 4.2 23:42:44 10° NNW 23:48:21 68° W 23:49:32 52° SSW
SL-16 R/B 3.7 23:43:43 10° NNW 23:48:43 31° NE 23:52:42 15° ESE
Cosmos 1269 Rocket 4.4 23:50:05 45° ESE 23:50:31 46° ESE 23:55:33 10° NNE
Cosmos 1602 4.5 23:52:57 44° W 23:53:00 44° WNW 23:56:43 10° N
